Tracking 29489 objects as of 9-Sep-2024
HD Live streaming from Space Station
objects crossing your sky now

FENGYUN 1C DEB

Track FENGYUN 1C DEB now!
10-day predictions


NORAD ID: 31731
Int'l Code: 1999-025CEE
Perigee: 784.2 km
Apogee: 801.0 km
Inclination: 99.3 °
Period: 100.6 minutes
Semi major axis: 7163 km
RCS: 0.0064 m2 (small)
Launch date: May 10, 1999
Source: People's Republic of China (PRC)
Launch site: Taiyaun Space Center, China (TSC)

Note: This is SATELLITE DEBRIS
Your satellite tracking list
Your tracking list is empty




NASA's NSSDC Master Catalog

Two Line Element Set (TLE):
1 31731U 99025CEE 24252.46011207  .00021362  00000-0  79679-2 0  9990
2 31731  99.3327 256.8160 0011765   9.2235 350.9160 14.31878658892205
Source of the keplerian elements: AFSPC